Weather History for Safford, AZ

Change the Weather History Date:

Wednesday, January 16, 2013

  Actual Average Record
Temperature  
Mean Temperature 34 °F -  
Max Temperature 52 °F 61 °F 75 °F (2000)
Min Temperature 15 °F 30 °F 11 °F (1964)
Degree Days  
Heating Degree Days 32    
Moisture  
Dew Point -2 °F    
Average Humidity 23    
Maximum Humidity 36    
Minimum Humidity 12    
Precipitation  
Precipitation 0.00 in - - ()
Sea Level Pressure  
Sea Level Pressure 30.38 in    
Wind  
Wind Speed 5 mph (ESE)    
Max Wind Speed 12 mph    
Max Gust Speed -    
Visibility 10 miles    
Events      
Averages and records for this station are not official NWS values.
T = Trace of Precipitation, MM = Missing Value Source: NWS Daily Summary

Daily Weather History Graph

Daily Weather History Graph

Search for Another Location

Airport:

Trip Planner

Search our weather history database for the weather conditions in past years. The results will help you decide how hot, cold, wet, or windy it might be!

Date:

Astronomy

Jan. 16, 2013 Rise Set
Actual Time 7:20 AM MST 5:36 PM MST
Civil Twilight 6:54 AM MST 6:02 PM MST
Nautical Twilight 6:24 AM MST 6:33 PM MST
Astronomical Twilight 5:54 AM MST 7:02 PM MST
Moon 10:19 AM MST (1/16) 11:08 PM MST (1/16)
Length of Visible Light 11h 08m
Length of Day
10h 15m
Waxing Crescent, 29% of the Moon is Illuminated
Jan 16
Waxing Crescent
Jan 18
First Quarter
Jan 26
Full
Feb 3
Last Quarter
Feb 10
New

Hourly Weather History & Observations

Time (MST) Temp. Windchill Dew Point Humidity Pressure Visibility Wind Dir Wind Speed Gust Speed Precip Events Conditions
12:51 AM 19.9 °F - -6.0 °F 32% 30.42 in 10.0 mi Calm Calm - N/A   Clear
1:51 AM 19.9 °F 13.4 °F -6.0 °F 32% 30.42 in 10.0 mi East 4.6 mph - N/A   Clear
2:51 AM 19.0 °F 12.3 °F -5.1 °F 34% 30.43 in 10.0 mi East 4.6 mph - N/A   Clear
3:51 AM 19.9 °F 12.1 °F -6.0 °F 32% 30.42 in 10.0 mi South 5.8 mph - N/A   Clear
4:51 AM 15.1 °F 9.4 °F -8.0 °F 36% 30.42 in 10.0 mi SE 3.5 mph - N/A   Clear
5:51 AM 16.0 °F - -7.1 °F 36% 30.42 in 10.0 mi Calm Calm - N/A   Clear
6:51 AM 17.1 °F 10.0 °F -6.0 °F 36% 30.43 in 10.0 mi East 4.6 mph - N/A   Clear
7:51 AM 23.0 °F 14.7 °F -0.9 °F 35% 30.43 in 10.0 mi SE 6.9 mph - N/A   Clear
8:51 AM 28.9 °F 20.4 °F -0.9 °F 28% 30.46 in 10.0 mi South 9.2 mph - N/A   Clear
9:51 AM 33.1 °F 25.5 °F -2.9 °F 21% 30.45 in 10.0 mi SSE 9.2 mph - N/A   Clear
10:51 AM 39.0 °F 34.0 °F -0.9 °F 19% 30.43 in 10.0 mi ESE 6.9 mph - N/A   Clear
11:51 AM 43.0 °F 37.7 °F -0.9 °F 16% 30.39 in 10.0 mi ESE 9.2 mph - N/A   Clear
12:51 PM 46.0 °F 41.4 °F -2.9 °F 13% 30.35 in 10.0 mi SSE 9.2 mph - N/A   Clear
1:51 PM 48.0 °F - -2.0 °F 13% 30.33 in 10.0 mi ESE 5.8 mph - N/A   Clear
2:51 PM 50.0 °F - -0.9 °F 12% 30.30 in 10.0 mi East 4.6 mph - N/A   Clear
3:51 PM 52.0 °F - -0.0 °F 12% 30.28 in 10.0 mi East 6.9 mph - N/A   Clear
4:51 PM 52.0 °F - -0.0 °F 12% 30.30 in 10.0 mi East 4.6 mph - N/A   Clear
5:51 PM 45.0 °F 41.8 °F -0.9 °F 15% 30.32 in 10.0 mi SSE 5.8 mph - N/A   Clear
6:51 PM 42.1 °F 37.1 °F 1.0 °F 18% 30.34 in 10.0 mi East 8.1 mph - N/A   Clear
7:51 PM 37.9 °F 32.1 °F 1.0 °F 21% 30.35 in 10.0 mi East 8.1 mph - N/A   Clear
8:51 PM 39.0 °F 31.8 °F 1.9 °F 21% 30.34 in 10.0 mi East 11.5 mph - N/A   Clear
9:51 PM 39.0 °F 32.8 °F 1.9 °F 21% 30.34 in 10.0 mi East 9.2 mph - N/A   Clear
10:51 PM 39.9 °F 32.9 °F 3.0 °F 21% 30.32 in 10.0 mi ESE 11.5 mph - N/A   Clear
11:51 PM 39.0 °F 32.3 °F 3.0 °F 22% 30.33 in 10.0 mi SE 10.4 mph - N/A   Clear